| time (UTC) | temp F | wind direction | speed MPH | gust MPH | rain 1hr in | rain 24hr in | rain mn in | humidity % | barometer mb |
| 20260510055323 | 62 | 10 | 0.0 | 0.0 | 0.00 | 0.00 | 0.00 | 75 | 470.2 |
| 20260510054801 | 61 | 10 | 0.0 | 0.0 | 0.00 | 0.00 | 0.00 | 76 | 461.1 |
| 20260510054258 | 60 | 10 | 0.0 | 2.0 | 0.00 | 0.00 | 0.00 | 77 | 468.0 |
| 20260510052806 | 60 | 10 | 0.0 | 3.0 | 0.00 | 0.00 | 0.00 | 77 | 468.0 |
| 20260510051325 | 59 | 10 | 0.0 | 2.0 | 0.00 | 0.00 | 0.00 | 78 | 473.2 |
| 20260510050321 | 59 | 10 | 0.0 | 0.0 | 0.00 | 0.00 | 0.00 | 78 | 468.0 |
| 20260510045318 | 59 | 10 | 0.0 | 0.0 | 0.00 | 0.00 | 0.00 | 79 | 479.0 |
| 20260510044318 | 58 | 10 | 0.0 | 0.0 | 0.00 | 0.00 | 0.00 | 79 | 468.7 |
| 20260510043318 | 58 | 10 | 0.0 | 0.0 | 0.00 | 0.00 | 0.00 | 80 | 476.0 |
| 20260510042318 | 57 | 10 | 0.0 | 0.0 | 0.00 | 0.00 | 0.00 | 81 | 466.6 |
| 20260510041318 | 57 | 10 | 0.0 | 0.0 | 0.00 | 0.00 | 0.00 | 81 | 468.0 |
| 20260510040320 | 56 | 10 | 0.0 | 0.0 | 0.00 | 0.00 | 0.00 | 81 | 598.0 |
| 20260510035321 | 57 | 10 | 0.0 | 0.0 | 0.00 | 0.00 | 0.00 | 81 | 472.3 |
| 20260510034311 | 57 | 10 | 0.0 | 0.0 | 0.00 | 0.00 | 0.00 | 81 | 460.8 |
| 20260510033310 | 57 | 10 | 0.0 | 0.0 | 0.00 | 0.00 | 0.00 | 81 | 467.4 |
| 20260510032310 | 57 | 10 | 1.0 | 4.0 | 0.00 | 0.00 | 0.00 | 80 | 463.4 |
| 20260510031305 | 57 | 9 | 1.0 | 5.0 | 0.00 | 0.00 | 0.00 | 80 | 467.8 |
| 20260510030308 | 58 | 5 | 1.0 | 6.0 | 0.00 | 0.00 | 0.00 | 79 | 468.0 |
| 20260510025306 | 58 | 5 | 2.0 | 5.0 | 0.00 | 0.00 | 0.00 | 79 | 468.1 |
| 20260510024308 | 58 | 12 | 1.0 | 5.0 | 0.00 | 0.00 | 0.00 | 79 | 498.6 |
| 20260510023306 | 58 | 15 | 1.0 | 5.0 | 0.00 | 0.00 | 0.00 | 79 | 463.6 |
| 20260510022306 | 58 | 21 | 0.0 | 4.0 | 0.00 | 0.00 | 0.00 | 80 | 468.0 |
| 20260510021301 | 58 | 20 | 2.0 | 7.0 | 0.00 | 0.00 | 0.00 | 80 | 468.1 |
| 20260510020302 | 58 | 13 | 3.0 | 8.0 | 0.00 | 0.00 | 0.00 | 80 | 468.0 |
| 20260510015306 | 58 | 19 | 3.0 | 8.0 | 0.00 | 0.00 | 0.00 | 80 | 466.5 |
| 20260510014259 | 58 | 5 | 2.0 | 8.0 | 0.00 | 0.00 | 0.00 | 81 | 489.4 |
| 20260510013259 | 58 | 51 | 1.0 | 5.0 | 0.00 | 0.00 | 0.00 | 82 | 468.0 |
| 20260510012745 | 58 | 56 | 1.0 | 4.0 | 0.00 | 0.00 | 0.00 | 84 | 450.8 |
| 20260510011259 | 58 | 56 | 0.0 | 4.0 | 0.00 | 0.00 | 0.00 | 84 | 483.8 |
| 20260510010303 | 58 | 56 | 2.0 | 4.0 | 0.00 | 0.00 | 0.00 | 85 | 462.7 |
| 20260510005732 | 58 | 58 | 0.0 | 4.0 | 0.00 | 0.00 | 0.00 | 85 | 468.0 |
| 20260510004255 | 58 | 59 | 0.0 | 0.0 | 0.00 | 0.00 | 0.00 | 85 | 463.4 |
| 20260510003253 | 58 | 59 | 1.0 | 4.0 | 0.00 | 0.00 | 0.00 | 84 | 468.0 |
| 20260510002250 | 58 | 0 | 0.0 | 4.0 | 0.00 | 0.00 | 0.00 | 84 | 468.0 |
| 20260510001725 | 58 | 163 | 0.0 | 0.0 | 0.00 | 0.00 | 0.00 | 84 | 468.1 |
| 20260510000249 | 59 | 163 | 0.0 | 0.0 | 0.00 | 0.00 | 0.00 | 83 | 468.8 |
| 20260509235734 | 59 | 163 | 0.0 | 0.0 | 0.00 | 0.00 | 0.00 | 84 | 467.5 |
| 20260509234718 | 59 | 163 | 1.0 | 4.0 | 0.00 | 0.00 | 0.00 | 84 | 468.0 |
| 20260509233244 | 59 | 165 | 0.0 | 2.0 | 0.00 | 0.00 | 0.00 | 84 | 497.0 |
| 20260509232243 | 59 | 175 | 0.0 | 0.0 | 0.00 | 0.00 | 0.00 | 83 | 473.6 |
| 20260509231241 | 59 | 175 | 0.0 | 0.0 | 0.00 | 0.00 | 0.00 | 83 | 464.9 |
| 20260509230244 | 59 | 175 | 0.0 | 0.0 | 0.00 | 0.00 | 0.00 | 82 | 472.4 |
| 20260509225243 | 60 | 175 | 0.0 | 0.0 | 0.00 | 0.00 | 0.00 | 81 | 701.0 |
| 20260509224243 | 60 | 175 | 0.0 | 0.0 | 0.00 | 0.00 | 0.00 | 80 | 467.2 |
| 20260509223237 | 60 | 175 | 0.0 | 0.0 | 0.00 | 0.00 | 0.00 | 79 | 468.0 |
| 20260509222238 | 60 | 175 | 0.0 | 0.0 | 0.00 | 0.00 | 0.00 | 79 | 478.7 |
| 20260509221726 | 61 | 175 | 0.0 | 0.0 | 0.00 | 0.00 | 0.00 | 78 | 476.9 |
| 20260509220233 | 61 | 175 | 0.0 | 0.0 | 0.00 | 0.00 | 0.00 | 76 | 464.1 |
| 20260509215234 | 62 | 175 | 0.0 | 0.0 | 0.00 | 0.00 | 0.00 | 75 | 484.5 |
| 20260509214231 | 62 | 175 | 0.0 | 0.0 | 0.00 | 0.00 | 0.00 | 75 | 468.1 |
| 20260509213646 | 62 | 175 | 0.0 | 0.0 | 0.00 | 0.00 | 0.00 | 74 | 468.0 |
| 20260509213427 | 62 | 175 | 0.0 | 0.0 | 0.00 | 0.00 | 0.00 | 74 | 468.0 |
| 20260509211231 | 62 | 175 | 0.0 | 0.0 | 0.00 | 0.00 | 0.00 | 73 | 468.0 |
| 20260509210231 | 62 | 175 | 0.0 | 0.0 | 0.00 | 0.00 | 0.00 | 73 | 468.0 |
| 20260509205231 | 63 | 175 | 0.0 | 2.0 | 0.00 | 0.00 | 0.00 | 72 | 467.9 |
| 20260509204224 | 63 | 175 | 0.0 | 0.0 | 0.00 | 0.00 | 0.00 | 71 | 466.5 |
| 20260509203225 | 64 | 175 | 0.0 | 0.0 | 0.00 | 0.00 | 0.00 | 70 | 468.0 |
| 20260509202224 | 64 | 175 | 0.0 | 0.0 | 0.00 | 0.00 | 0.00 | 69 | 468.3 |
| 20260509201218 | 64 | 175 | 0.0 | 0.0 | 0.00 | 0.00 | 0.00 | 69 | 468.0 |
| 20260509200215 | 65 | 175 | 0.0 | 0.0 | 0.00 | 0.00 | 0.00 | 68 | 758.5 |
| 20260509195215 | 65 | 175 | 0.0 | 0.0 | 0.00 | 0.00 | 0.00 | 68 | 464.4 |
| 20260509194217 | 65 | 175 | 0.0 | 2.0 | 0.00 | 0.00 | 0.00 | 69 | 468.0 |
| 20260509193212 | 65 | 192 | 0.0 | 0.0 | 0.00 | 0.00 | 0.00 | 68 | 468.1 |
| 20260509192214 | 66 | 192 | 0.0 | 0.0 | 0.00 | 0.00 | 0.00 | 66 | 498.6 |
| 20260509191614 | 66 | 192 | 0.0 | 0.0 | 0.00 | 0.00 | 0.00 | 66 | 484.4 |
| 20260509191355 | 66 | 192 | 0.0 | 0.0 | 0.00 | 0.00 | 0.00 | 66 | 468.0 |
| 20260509185206 | 67 | 192 | 0.0 | 0.0 | 0.00 | 0.00 | 0.00 | 65 | 445.3 |
| 20260509184205 | 67 | 192 | 0.0 | 0.0 | 0.00 | 0.00 | 0.00 | 62 | 467.2 |
| 20260509183204 | 67 | 192 | 0.0 | 0.0 | 0.00 | 0.00 | 0.00 | 64 | 498.6 |
| 20260509182205 | 67 | 192 | 0.0 | 0.0 | 0.00 | 0.00 | 0.00 | 64 | 468.7 |
| 20260509181204 | 68 | 192 | 0.0 | 0.0 | 0.00 | 0.00 | 0.00 | 64 | 466.5 |
| 20260509180205 | 69 | 192 | 0.0 | 0.0 | 0.00 | 0.00 | 0.00 | 61 | 465.9 |
| 20260509175203 | 69 | 192 | 0.0 | 0.0 | 0.00 | 0.00 | 0.00 | 61 | 499.1 |
| 20260509174203 | 70 | 192 | 0.0 | 4.0 | 0.00 | 0.00 | 0.00 | 60 | 496.3 |
| 20260509173204 | 70 | 192 | 0.0 | 4.0 | 0.00 | 0.00 | 0.00 | 60 | 476.9 |
| 20260509172201 | 70 | 207 | 2.0 | 6.0 | 0.00 | 0.00 | 0.00 | 61 | 468.0 |
| 20260509171204 | 71 | 197 | 2.0 | 6.0 | 0.00 | 0.00 | 0.00 | 62 | 466.7 |
| 20260509170200 | 71 | 211 | 1.0 | 5.0 | 0.00 | 0.00 | 0.00 | 64 | 468.0 |
| 20260509165158 | 71 | 205 | 2.0 | 6.0 | 0.00 | 0.00 | 0.00 | 64 | 467.6 |
| 20260509164158 | 72 | 201 | 2.0 | 7.0 | 0.00 | 0.00 | 0.00 | 63 | 468.3 |
| 20260509163200 | 72 | 207 | 1.0 | 6.0 | 0.00 | 0.00 | 0.00 | 64 | 482.1 |
| 20260509162158 | 73 | 208 | 2.0 | 7.0 | 0.00 | 0.00 | 0.00 | 63 | 467.2 |
| 20260509161150 | 73 | 194 | 5.0 | 10.0 | 0.00 | 0.00 | 0.00 | 62 | 482.1 |
| 20260509160150 | 73 | 192 | 1.0 | 7.0 | 0.00 | 0.00 | 0.00 | 61 | 601.0 |
| 20260509155152 | 74 | 211 | 2.0 | 8.0 | 0.00 | 0.00 | 0.00 | 59 | 468.0 |
| 20260509154152 | 74 | 240 | 1.0 | 4.0 | 0.00 | 0.00 | 0.00 | 58 | 468.0 |
| 20260509153143 | 74 | 185 | 0.0 | 4.0 | 0.00 | 0.00 | 0.00 | 61 | 515.0 |
| 20260509152625 | 73 | 223 | 1.0 | 5.0 | 0.00 | 0.00 | 0.00 | 60 | 493.5 |
| 20260509151625 | 74 | 250 | 1.0 | 5.0 | 0.00 | 0.00 | 0.00 | 57 | 467.4 |
| 20260509150141 | 74 | 219 | 1.0 | 9.0 | 0.00 | 0.00 | 0.00 | 55 | 468.0 |
| 20260509145137 | 75 | 163 | 2.0 | 8.0 | 0.00 | 0.00 | 0.00 | 54 | 468.0 |
| 20260509144131 | 75 | 194 | 2.0 | 10.0 | 0.00 | 0.00 | 0.00 | 54 | 478.5 |
| 20260509143622 | 75 | 189 | 4.0 | 9.0 | 0.00 | 0.00 | 0.00 | 53 | 473.3 |
| 20260509142131 | 76 | 238 | 3.0 | 9.0 | 0.00 | 0.00 | 0.00 | 50 | 467.3 |
| 20260509141134 | 76 | 205 | 2.0 | 9.0 | 0.00 | 0.00 | 0.00 | 49 | 468.0 |
| 20260509140130 | 76 | 265 | 3.0 | 9.0 | 0.00 | 0.00 | 0.00 | 49 | 1199.0 |
| 20260509135134 | 76 | 259 | 4.0 | 12.0 | 0.00 | 0.00 | 0.00 | 48 | 468.2 |
| 20260509134131 | 76 | 220 | 1.0 | 5.0 | 0.00 | 0.00 | 0.00 | 48 | 468.0 |
| 20260509133131 | 76 | 175 | 1.0 | 7.0 | 0.00 | 0.00 | 0.00 | 48 | 468.0 |
| 20260509132613 | 76 | 189 | 3.0 | 7.0 | 0.00 | 0.00 | 0.00 | 48 | 488.2 |
| 20260509131126 | 75 | 236 | 2.0 | 7.0 | 0.00 | 0.00 | 0.00 | 50 | 468.0 |
| 20260509130607 | 74 | 283 | 2.0 | 7.0 | 0.00 | 0.00 | 0.00 | 51 | 468.0 |
| 20260509125126 | 75 | 310 | 3.0 | 8.0 | 0.00 | 0.00 | 0.00 | 50 | 489.0 |
| 20260509124605 | 75 | 269 | 3.0 | 9.0 | 0.00 | 0.00 | 0.00 | 50 | 467.9 |
| 20260509123118 | 75 | 250 | 2.0 | 7.0 | 0.00 | 0.00 | 0.00 | 48 | 473.9 |
| 20260509122117 | 75 | 189 | 4.0 | 13.0 | 0.00 | 0.00 | 0.00 | 49 | 463.3 |
| 20260509121117 | 75 | 165 | 2.0 | 8.0 | 0.00 | 0.00 | 0.00 | 49 | 468.1 |
| 20260509120109 | 74 | 313 | 1.0 | 6.0 | 0.00 | 0.00 | 0.00 | 50 | 449.9 |
| 20260509115107 | 74 | 255 | 0.0 | 3.0 | 0.00 | 0.00 | 0.00 | 48 | 498.6 |
| 20260509114108 | 74 | 253 | 2.0 | 6.0 | 0.00 | 0.00 | 0.00 | 51 | 490.0 |
| 20260509113106 | 74 | 261 | 3.0 | 8.0 | 0.00 | 0.00 | 0.00 | 52 | 467.2 |
| 20260509112107 | 74 | 186 | 2.0 | 8.0 | 0.00 | 0.00 | 0.00 | 43 | 468.0 |
| 20260509111107 | 74 | 198 | 3.0 | 8.0 | 0.00 | 0.00 | 0.00 | 48 | 498.3 |
| 20260509110104 | 74 | 187 | 2.0 | 7.0 | 0.00 | 0.00 | 0.00 | 51 | 467.9 |
| 20260509105536 | 74 | 238 | 2.0 | 8.0 | 0.00 | 0.00 | 0.00 | 51 | 463.5 |
| 20260509104108 | 73 | 221 | 2.0 | 7.0 | 0.00 | 0.00 | 0.00 | 56 | 466.6 |
| 20260509103104 | 73 | 225 | 2.0 | 8.0 | 0.00 | 0.00 | 0.00 | 55 | 468.0 |
| 20260509102104 | 72 | 273 | 2.0 | 10.0 | 0.00 | 0.00 | 0.00 | 57 | 468.3 |
| 20260509101101 | 72 | 221 | 2.0 | 9.0 | 0.00 | 0.00 | 0.00 | 56 | 468.0 |
| 20260509095059 | 71 | 267 | 3.0 | 9.0 | 0.00 | 0.00 | 0.00 | 60 | 467.2 |
| 20260509094057 | 72 | 193 | 3.0 | 9.0 | 0.00 | 0.00 | 0.00 | 60 | 483.8 |
| 20260509093059 | 71 | 252 | 2.0 | 8.0 | 0.00 | 0.00 | 0.00 | 61 | 470.7 |
| 20260509092100 | 71 | 220 | 2.0 | 6.0 | 0.00 | 0.00 | 0.00 | 62 | 484.4 |
| 20260509091056 | 70 | 238 | 1.0 | 5.0 | 0.00 | 0.00 | 0.00 | 65 | 426.1 |
| 20260509090058 | 70 | 231 | 1.0 | 5.0 | 0.00 | 0.00 | 0.00 | 64 | 473.2 |
| 20260509085057 | 70 | 223 | 0.0 | 5.0 | 0.00 | 0.00 | 0.00 | 67 | 478.3 |
| 20260509084056 | 70 | 209 | 1.0 | 6.0 | 0.00 | 0.00 | 0.00 | 66 | 468.0 |
| 20260509083056 | 70 | 126 | 0.0 | 4.0 | 0.00 | 0.00 | 0.00 | 67 | 468.1 |
| 20260509082057 | 69 | 92 | 0.0 | 4.0 | 0.00 | 0.00 | 0.00 | 67 | 473.2 |
| 20260509081532 | 69 | 87 | 0.0 | 4.0 | 0.00 | 0.00 | 0.00 | 67 | 467.9 |
| 20260509080446 | 69 | 0 | 0.0 | 0.0 | 0.00 | 0.00 | 0.00 | 66 | 468.1 |
| 20260509080241 | 69 | 0 | 0.0 | 1.0 | 0.00 | 0.00 | 0.00 | 66 | 468.1 |
| 20260509074050 | 69 | 87 | 0.0 | 1.0 | 0.00 | 0.00 | 0.00 | 67 | 468.0 |
| 20260509073049 | 68 | 0 | 1.0 | 3.0 | 0.00 | 0.00 | 0.00 | 68 | 468.7 |
| 20260509073020 | 67 | 0 | 0.0 | 3.0 | 0.00 | 0.00 | 0.00 | 69 | 464.8 |
| 20260509071042 | 67 | 0 | 0.0 | 1.0 | 0.00 | 0.00 | 0.00 | 70 | 469.1 |
| 20260509070040 | 67 | 90 | 0.0 | 1.0 | 0.00 | 0.00 | 0.00 | 69 | 484.4 |
| 20260509065040 | 67 | 0 | 0.0 | 0.0 | 0.00 | 0.00 | 0.00 | 69 | 467.8 |
| 20260509064516 | 65 | 0 | 0.0 | 0.0 | 0.00 | 0.00 | 0.00 | 72 | 944.3 |
| 20260509063035 | 65 | 0 | 0.0 | 0.0 | 0.00 | 0.00 | 0.00 | 72 | 440.3 |
| 20260509062951 | 64 | 0 | 0.0 | 0.0 | 0.00 | 0.00 | 0.00 | 74 | 477.6 |
| 20260509061035 | 63 | 0 | 0.0 | 0.0 | 0.00 | 0.00 | 0.00 | 75 | 908.5 |